User: anonymous   Login
Location: Brno
(49.2000°N, 16.6330°E)
Time: 13:38:24
(UTC+01:00)
Language:

Meteor 1-4 Rocket - Orbit

View from above orbital plane
View from above orbital plane
View from above satellite
View from above satellite

Ground track
Ground track

The orbit data is extracted from the following two-line orbital elements,

1 04394U 70037B   14355.21075357  .00013376  00000-0  55997-3 0  7542
2 04394 081.2439 358.7778 0045341 340.2385 019.7088 15.22480894426149
Epoch (UTC): 21 December 2014 05:03:29
Eccentricity: 0.0045341
inclination: 81.2439°
perigee height: 467 km
apogee height: 529 km
right ascension of ascending node: 358.7778°
argument of perigee: 340.2385°
revolutions per day: 15.22480894
mean anomaly at epoch: 19.7088°
orbit number at epoch: 42614

The dashed part of the orbit path shows where the satellite is in the earth's shadow,  

DLR